Simultaneous Nadir Overpasses (SNOs) Predictions

Prediction of SNOs between GOES-16 and NPP Satellite Orbit:

Table of predicted SNOs for the next 14.0 days since TLE Epoch: 7/1/2022
Index Date Time (GOES-16) GOES-16 Lat,Lon NPP Lat,Lon Distance(km) Time Diff (sec)
1 07/02/2022 18:20:30 -0.01, -75.21 0.20, -74.16 119.34 80
2 07/04/2022 06:45:00 0.02, -75.22 0.98, -79.43 481.06 80
3 07/05/2022 06:23:36 0.02, -75.22 -0.04, -74.91 35.82 80
4 07/07/2022 18:26:51 -0.02, -75.26 -0.10, -75.70 49.92 80
5 07/08/2022 18:08:07 -0.01, -75.27 0.92, -71.17 467.17 80
6 07/10/2022 06:32:37 -0.00, -75.28 0.26, -76.45 133.04 80
7 07/11/2022 06:11:13 -0.01, -75.29 -0.76, -71.92 383.87 80
8 07/12/2022 18:33:12 0.01, -75.31 -0.40, -77.24 218.79 80
9 07/13/2022 18:17:07 0.01, -75.33 0.57, -72.70 298.69 80
10 07/15/2022 06:38:56 -0.01, -75.34 0.61, -77.97 300.43 80
